Погода в Утене

Поиск расширенной информации на нашем сайте:

Полезная информация:

Новости сайта



02.01.2020
Опубликован Долгосрочный прогноз погоды по городам России и ближнего зарубежья на январь 2020 года.
Карты: Прогноз на январь и февраль 2020 года, Сравнение прогнозируемой аномалии приземной температуры воздуха на январь 2020 года по разным моделям.




Погода в Утене - сегодня

Время (UTC), дата Ветер
(°,м/с) 
Видим.   Явления Облачность Т
(°С)
Тd
(°С)
f(%) Тe
(°С)
Pmin
(гПа)
dP
(гПа)
Po
(мм)
O2
(г/м3)
Тmin Tmax R s Состояние
почвы
06 27.11.21 070 (В) 2-5{07}  4800 м  слаб. дождь со снегом  10/10 240 м 
[Frnb|Ns]
+1 +0.2 94 994.1  -2.2  736  295  +0.4    <0.5  мокрый или
старый снег
50-90% 
09 27.11.21 060 (СВ) 3-5{06}  5000 м  слаб. снег{дождь}  10/10 240 м 
[Frnb|Ns]
+0.9 +0.2 95 -1  992.3  -1.8  734  295        <0.5   
12 27.11.21 090 (В) 1-3{05}  3300 м  слаб. снег{дождь}  10/10 210 м 
[Frnb|Ns]
+0.9 +0.2 95 +2  991.4  -0.9  734  295      <0.5   
15 27.11.21 300 (СЗ) 1-2{04}  3100 м  слаб. снег  10/10 600 м 
[Ns]
+0.2 -0.1 98 +1  991.9  0.5  734  296        равномерный
мокрый или
старый снег
100% 
18 27.11.21 300 (СЗ) 1-2{02}  3700 м  слаб. снег  10/10 120 м 
[Frnb|Ns]
+0.2 +0 99 +1  993.5  1.6  735  296    +1  равномерный
мокрый или
старый снег
100% 
21 27.11.21 тихо () -1{02}  4700 м  слаб. снег  10/10 270 м 
[Frnb|Ns]
+0.3 +0.1 99 995.5  1.9  737  296        равномерный
мокрый или
старый снег
100% 
00 28.11.21 200 (Ю) 2-3{03}  8000 м  слаб. снег  10/10 180 м 
[Frnb|Ns]
+0.4 +0.3 99 996.3  0.9  737  297      0.5  равномерный
мокрый или
старый снег
100% 
03 28.11.21 220 (ЮЗ) 2-5{05}  3500 м  слаб. морось{снег}  10/10 120 м 
[St]
+0.6 +0.2 97 997.3  0.9  738  297        равномерный
мокрый или
старый снег
100% 
06 28.11.21 210 (ЮЗ) 2-3{05}  6000 м  слаб. дождь{снег}  10/10 300 м 
[Frnb|Ns]
+0.6 +0.1 96 998.7  1.4  739  297  +0.1    0.8  равномерный
мокрый или
старый снег
100% 
09 28.11.21 200 (Ю) 2-3{05}  11000 м  {дождь}  10/10 540 м 
[Sc]
+1 +0 93 1000.6  1.9  741  297        мокрый или
старый снег
50-90% 
12 28.11.21 190 (Ю) 2-3{04}  10 км  {дождь}  10/10 180 м 
[St]
+1.4 +0.5 94 +1  1001.3  0.8  741  297      0.0  <0.5  мокрый или
старый снег
10-40% 
15 28.11.21 140 (ЮВ) 1-1{04}  8000 м  дымка{морось}  10/10 930 м 
[Sc]
+1.1 +0.1 93 +2  1002.1  0.7  742  298        <0.5  мокрый или
старый снег
10-40% 
18 28.11.21 090 (В) 1-2{04}  8000 м  дымка{дождь}  9/9 800 м 
[Sc]
+0.7 -0.2 94 +1  1001.7  -0.4  741  298    +1.5  0.0  <0.5  мокрый или
старый снег
10-40% 
21 28.11.21 070 (В) 2-4{04}  16000 м    10/10 720 м 
[Sc]
+0.6 -0.5 92 1001.3  -0.4  741  298        <0.5  мокрый или
старый снег
10-40% 
00 29.11.21 070 (В) 2-4{05}  9000 м  слаб. снег  10/0 средняя 
[Ac As]
+0.6 -0.7 91 999.6  -1.7  740  298      0.0  <0.5  мокрый или
старый снег
10-40% 
03 29.11.21 060 (СВ) 3-5{06}  3200 м  слаб. снег  10/10 240 м 
[Frnb|Ns]
+0.5 -0.2 95 -1  997.2  -2.4  738  297        <0.5  мокрый или
старый снег
10-40% 
06 29.11.21 070 (В) 2-5{06}  4500 м  слаб. снег  10/10 270 м 
[Frnb|Ns]
+0.5 -0.2 95 995  -2.2  736  296  +0.4    равномерный
мокрый или
старый снег
100% 
09 29.11.21 050 (СВ) 2-3{05}  2600 м  слаб. снег  10/10 600 м 
[Ns]
+0.5 +0 96 992.7  -2.2  735  295        равномерный
мокрый или
старый снег
100% 
12 29.11.21 100 (В) 2-4{05}  1500 м  снег  10/10 150 м 
[Frnb|Ns]
+0.4 -0.1 96 989  -3.7  732  294      равномерный
мокрый или
старый снег
100% 
15 29.11.21 320 (СЗ) 2-4{05}  1100 м  снег  10/10 210 м 
[Frnb|Ns]
+0.1 -0.1 99 -1  986.8  -2.2  730  294        равномерный
мокрый или
старый снег
100% 
18 29.11.21 310 (СЗ) 3-5{07}  8000 м  слаб. снег [диам. отлож. мокр. снега 10 мм]  10/10 270 м 
[Frnb|Ns]
-1.7 -2.3 96 -4  986  -0.8  730  296    +0.6  12  равномерный
сухой снег
100% 
21 29.11.21 310 (СЗ) 4-7{10}  19000 м  слаб. снег [диам. отлож. мокр. снега 10 мм]  10/10 400 м 
[Frnb|Ns]
-3 -4.2 91 -6  985.5  -0.5  729  298        равномерный
сухой снег
100% 
00 30.11.21 310 (СЗ) 4-7{10}  1400 м  слаб. снег [диам. отлож. мокр. снега 10 мм]  10/10 270 м 
[Frnb|Ns]
-4.4 -5.4 93 -8  985.3  -0.4  729  299      0.6  равномерный
сухой снег
100% 
03 30.11.21 300 (СЗ) 4-8{12}  1300 м  слаб. снег [диам. отлож. мокр. снега 10 мм]  10/0 средняя 
[Ac As]
-2.7 -3.5 94 -6  986  0.8  730  297        неравномерный
сухой снег
100% 
06 30.11.21 300 (СЗ) 5-11{14}  17000 м  слаб. снег [диам. отлож. мокр. снега 10 мм]  10/10 450 м 
[Ns]
-2 -3.5 89 -5  987.8  1.8  731  297  -4.6    неравномерный
сухой снег
100% 
Время (UTC), дата Ветер
(°,м/с) 
Видим.   Явления Облачность Т
(°С)
Тd
(°С)
f(%) Тe
(°С)
Pmin
(гПа)
dP
(гПа)
Po
(мм)
O2
(г/м3)
Тmin Tmax R s Состояние
почвы

Для получения пояснительной информации подведите курсор к названию столбца.

ПОГОДА в Утене - архив

Всё, что Вы хотите узнать о погоде в Утене - удобно и подробно!

Выберите нужную дату (начиная с 1 января 2019* года) и нажмите кнопку "Найти".
Будут отображены архивные сводки погоды по пункту Утена, начиная с указанной даты.


Отображать данные в формате CSV (для использования в таблицах Excel)


Внимание! Наш архив погоды предназначен исключительно для личного некоммерческого использования в познавательных целях. Если Вам необходимы официальные справки о состоянии погоды (для производственных, юридических, коммерческих и т.п. целей), обращайтесь в органы Росгидромета.

*Примечание: данная дата относится к архиву по метеостанциям СССР (Россия, СНГ, Балтия).
Архив по метеостанциям Зарубежной Европы и Азии (кроме Китая) хранится 10 дней, по другим регионам земного шара (Китай, Африка, Америка, Австралия, Океания) - 1 день.

Утена - район местоположения метеостанции


Название, широта, долгота, высота метеостанции:
Утена 55.5°ш. 25.6°д. 106 м над ур. моря [Литва]

Дополнительная информация

В oтличие oт бoльшинства пoгoдных сайтoв мы публикуем пoдрoбную метеoинфoрмацию в детальнoм прoфессиoнальнoм фoрмате.

Характеристики температуры и влажнoсти вoздуха измеряются на высoте 2 м в тени вдали oт зданий и деревьев.
Скoрoсть ветра измеряется на высoте 10 м (на урoвне рoста челoвека скoрoсть ветра ниже в 1.5-2 раза). Если метеoстанция нахoдится в гoрoде или в лесу, тo скoрoсть ветра занижена на 2-4 м/с пo сравнению с oткрытым местoм. Скoрoсть ветра над акватoриями крупных рек и oзёр, а также на вершинах хoлмoв на 2-5 м/с выше, чем в oбычных услoвиях.
Атмoсфернoе давление в разных тoчках местнoсти мoжет значительнo oтличаться oт давления на метеoстанции, в зависимoсти oт услoвий рельефа (при пoдъёме на 10 м давление пoнижается примернo на 1 мм рт.ст.).